Regional Weather Roundup
Issued by NWS Green Bay, WI

Home | Current Version | Previous Version | Text Only | Print | Product List | Glossary On
Versions: 1 2 3 4 5 6 7 8 9 10 11 12 13 14 15 16 17 18 19 20 21 22 23 24 25 26 27 28 29 30 31 32 33 34 35 36 37 38 39 40 41 42 43 44 45 46 47 48 49 50
000
ASUS43 KGRB 131110
RWRGRB

NORTH-CENTRAL AND NORTHEAST WISCONSIN REGIONAL WEATHER ROUNDUP
NATIONAL WEATHER SERVICE GREEN BAY WI
600 AM CDT SUN JUL 13 2014

WIZ005-009-010>012-018-019-131200-
NORTH CENTRAL WISCONSIN

CITY           SKY/WX    TMP DP  RH WIND       PRES   REMARKS
IRONWOOD       CLEAR    N/A N/A N/A W8        29.84R
MANITOWISH WTR MOCLDY    56  53  88 NW8G18    29.87R
ARBOR VITAE    CLOUDY    62  58  88 NW7       29.86R
EAGLE RIVER    CLOUDY    60  58  92 W7        29.84R
LAND O LAKES   CLOUDY    60  53  77 NW10G17   29.85R
RHINELANDER    CLOUDY    60  59  96 W6        29.87R
PHILLIPS       MOCLDY    58  58  98 W6        29.89R
ANTIGO         CLOUDY    61  60  97 W9        29.87R
TOMAHAWK       CLOUDY    60  59  95 W5        29.88R
MERRILL        CLOUDY    63  62  98 W8        29.87R
$$

WIZ013-073-131200-
NORTHEAST WISCONSIN

CITY           SKY/WX    TMP DP  RH WIND       PRES   REMARKS
IRON MOUNTAIN  CLEAR     62  59  90 W8        29.79R
MARINETTE      CLEAR     59  57  94 W5        29.80R
OCONTO         CLEAR     58  58 100 CALM      29.82R
$$

WIZ017-030-035>037-045-131200-
CENTRAL WISCONSIN

CITY           SKY/WX    TMP DP  RH WIND       PRES   REMARKS
MEDFORD        CLOUDY    62  61  97 W8        29.89R
WAUSAU         CLEAR     63  61  93 W9        29.86R
MOSINEE        CLOUDY    63  63 100 W8        29.89R FOG
MARSHFIELD     FOG       63  62  97 W6        29.89R VSB 1/2
WISC RAPIDS    CLOUDY    63  62  97 W7        29.90S FOG
STEVENS POINT  CLOUDY    61  60  97 W7        29.89R FOG
WAUPACA        MOCLDY    65  63  93 W6        29.88R FOG
SHAWANO        PTCLDY    64  61  91 W8        29.85R
CLINTONVILLE   PTCLDY    63  61  94 W8        29.85R
$$

WIZ038-039-048-051-131200-
FOX VALLEY

CITY           SKY/WX    TMP DP  RH WIND       PRES   REMARKS
NWS GREEN BAY  MOCLDY    63  61  93 SW6       29.85R
APPLETON       CLOUDY    63  61  94 W8        29.87S
OSHKOSH        CLOUDY    64  62  93 W7        29.88R
FOND DU LAC    MOCLDY    63  61  93 SW7       29.89R
$$

WIZ022-050-052-131200-
EAST CENTRAL WISCONSIN

CITY           SKY/WX    TMP DP  RH WIND       PRES   REMARKS
STURGEON BAY   PTCLDY    63  59  88 W12       29.82R
MANITOWOC      PTCLDY    65  62  90 W10       29.85R
SHEBOYGAN      CLEAR     63  61  93 W8        29.87R
$$

LMZ563-521-522-541>543-131200-
LAKESHORE

STATION/POSITION TIME  TEMP    WIND        PRES    VSBY  WAVE
                       AIR SEA DIR/SP/G                  HT/PER
                 (UTC) (F)     (DEG/KT/KT) (MB)    (MI)  (FT/S)
SHEBOYGAN LKSHOR 1100   66     270/  8/ 11 1011.1R
KEWAUNEE LKSHORE 1100   63     280/  5/  9 1010.6F
NORTHPORT PIER   1100   64     270/  7/ 13 1008.5S
N MID LAKE BUOY  1100   61 58  230/ 10/ 12 1007.5R         1/ 4
MENOMINEE LKSHOR 1100   62     230/  7/ 10 1010.1R
$$


USA.gov is the U.S. government's official web portal to all federal, state and local government web resources and services.